Location: Lone Wolf Observatory
(41.0360°N, 89.2260°W)
Time: 09:26:16
(UTC-06:00)

Amateur Radio Satellites - All Passes

Search period start: 09 December 2016 08:56
Search period end: 10 December 2016 08:56
Location: Lone Wolf Observatory, 41.0360°N, 89.2260°W

Satellite Date Start Highest point End Downlink Frequencies (MHz)
Time Altitude Azimuth
CANX-2 09 Dec 08:56:54 08:59:21 15° 295° (WNW) 09:01:49 2200.000
CUSAT 1 09 Dec 08:58:13 09:01:12 77° 279° (W) 09:03:50 437.405
FUNcube-1 09 Dec 09:01:30 09:05:43 79° 103° (ESE) 09:09:50 145.935
Cosmos 2491 09 Dec 09:07:39 09:11:42 14° 302° (WNW) 09:15:46 435.465 / 435.565
DELFI C3 09 Dec 09:10:11 09:13:47 31° 97° (E) 09:17:21 145.870
PCSat 09 Dec 09:11:51 09:14:37 14° 103° (ESE) 09:17:24 145.827
SEEDS 09 Dec 09:14:35 09:17:11 16° 295° (WNW) 09:19:48 437.485
COMPASS 1 09 Dec 09:17:35 09:20:44 21° 292° (WNW) 09:23:54 437.405
GONETS M04 09 Dec 09:19:50 09:23:50 14° 58° (ENE) 09:27:48
TIGRISAT 09 Dec 09:21:06 09:25:47 84° 75° (ENE) 09:30:26 435.000
ANTELSAT 09 Dec 09:23:32 09:28:14 87° 258° (WSW) 09:32:53 437.575/2403.000
CUBEBUG 2 09 Dec 09:25:21 09:28:38 21° 294° (WNW) 09:31:51 437.445
Oscar 11 09 Dec 09:27:27 09:31:40 55° 286° (WNW) 09:35:52 145.826/435.025
POPSAT HIP 1 09 Dec 09:29:50 09:31:28 12° 62° (ENE) 09:33:05 437.405
JAS-2 09 Dec 09:34:48 09:40:07 31° 68° (ENE) 09:45:00 435.910
RS-15 09 Dec 09:37:43 09:48:07 32° 331° (NNW) 09:58:51 29.354- 29.394
HO-68 09 Dec 09:42:59 09:48:05 21° 304° (WNW) 09:53:11 435.675
HUMSAT D 09 Dec 09:51:46 09:55:44 49° 99° (E) 09:59:41 437.325/437.525
AO-85 09 Dec 09:57:06 10:01:04 88° 245° (WSW) 10:04:56 145.980
UWE-3 09 Dec 10:00:56 10:03:12 14° 296° (WNW) 10:05:25 435.000/436.395/437.385
Cosmos 2499 09 Dec 10:16:04 10:23:39 34° 70° (ENE) 10:30:42 435.465 / 435.565
NANOSAT C BR1 09 Dec 10:19:06 10:23:02 37° 71° (ENE) 10:27:00 145.865
DANDE 09 Dec 10:19:10 10:23:01 34° 281° (W) 10:26:05 436.750
QB50P2 09 Dec 10:28:20 10:32:31 55° 74° (ENE) 10:36:42 145.880/145.840
POLYITAN 1 09 Dec 10:28:46 10:32:57 52° 73° (ENE) 10:37:08 437.675
ESTCUBE 1 09 Dec 10:29:14 10:32:24 18° 93° (E) 10:35:33 437.505/2401.250
UNISAT 6 09 Dec 10:30:39 10:33:52 18° 267° (W) 10:37:05 437.425
ZACube-1 09 Dec 10:35:40 10:35:46 10° 299° (WNW) 10:35:53 437.345
CUBEBUG 1 09 Dec 10:37:17 10:39:25 13° 91° (E) 10:41:33 437.445
DUCHIFAT 1 09 Dec 10:39:05 10:43:15 58° 74° (ENE) 10:47:27 145.980
QB50P1 09 Dec 10:40:29 10:44:44 71° 75° (ENE) 10:49:01 145.935-145.965
DELFI C3 09 Dec 10:45:29 10:48:22 19° 293° (WNW) 10:51:16 145.870
PCSat 09 Dec 10:51:54 10:57:18 76° 300° (WNW) 11:02:46 145.827
VELOX 1 09 Dec 10:57:24 10:59:52 14° 91° (E) 11:02:20 145.980
POPSAT HIP 1 09 Dec 11:02:25 11:06:40 66° 259° (WSW) 11:10:57 437.405
SPROUT 09 Dec 11:04:22 11:05:13 10° 89° (E) 11:06:06 437.525
GONETS M04 09 Dec 11:13:45 11:22:28 69° 80° (E) 11:31:11
JAS-2 09 Dec 11:19:14 11:25:07 39° 261° (W) 11:30:25 435.910
BUGSAT 1 09 Dec 11:20:46 11:24:56 65° 75° (ENE) 11:29:11 437.445
HUMSAT D 09 Dec 11:28:52 11:30:56 14° 296° (WNW) 11:32:59 437.325/437.525
AISAT 09 Dec 11:55:31 11:59:59 66° 101° (ESE) 12:04:25 437.250
NANOSAT C BR1 09 Dec 11:55:54 11:58:52 18° 267° (W) 12:01:52 145.865
RS-15 09 Dec 11:56:58 12:06:09 23° 6° (N) 12:15:20 29.354- 29.394
ESTCUBE 1 09 Dec 12:05:07 12:09:22 41° 289° (WNW) 12:13:37 437.505/2401.250
QB50P2 09 Dec 12:06:46 12:08:38 13° 269° (W) 12:10:30 145.880/145.840
POLYITAN 1 09 Dec 12:06:56 12:09:02 13° 269° (W) 12:11:07 437.675
Cosmos 2499 09 Dec 12:08:57 12:17:04 51° 271° (W) 12:24:34 435.465 / 435.565
BEESAT 3 09 Dec 12:09:08 12:12:46 33° 51° (NE) 12:16:23 437.485
CUBEBUG 1 09 Dec 12:11:41 12:16:02 56° 287° (WNW) 12:20:22 437.445
DUCHIFAT 1 09 Dec 12:17:41 12:19:17 12° 270° (W) 12:20:53 145.980
50 SAT 09 Dec 12:20:08 12:23:41 69° 284° (WNW) 12:27:14 437.505
Oscar 19 09 Dec 12:24:59 12:30:05 72° 74° (ENE) 12:35:13 437.125/150
VELOX 1 09 Dec 12:32:16 12:36:38 52° 287° (WNW) 12:40:57 145.980
UKube-1 09 Dec 12:32:32 12:36:51 61° 101° (ESE) 12:41:08 .
DX 1 09 Dec 12:32:52 12:37:17 84° 106° (ESE) 12:41:40 434.975-435.025
SPROUT 09 Dec 12:37:18 12:41:35 65° 285° (WNW) 12:45:48 437.525
PCSat 09 Dec 12:38:45 12:41:38 14° 320° (NW) 12:44:33 145.827
AO-7 09 Dec 12:42:04 12:47:36 20° 50° (NE) 12:53:09 29.400- 29.500
BEESAT 2 09 Dec 12:46:19 12:50:06 37° 52° (NE) 12:53:50 435.950
Gurwin Techsat 1B 09 Dec 12:51:09 12:56:24 65° 73° (ENE) 13:01:41 435.225
BUGSAT 1 09 Dec 12:59:50 13:00:43 11° 270° (W) 13:01:37 437.445
ITAMSAT 1 09 Dec 13:03:16 13:07:02 21° 63° (ENE) 13:10:48 435.822/435.867
GONETS M04 09 Dec 13:11:52 13:18:27 25° 279° (W) 13:25:03
AISAT 09 Dec 13:33:53 13:35:53 13° 298° (WNW) 13:37:53 437.250
TISAT 1 09 Dec 13:45:34 13:49:47 72° 284° (WNW) 13:53:57 437.305
BEESAT 3 09 Dec 13:47:07 13:50:13 22° 248° (WSW) 13:53:18 437.485
SWISSCUBE 09 Dec 13:52:31 13:56:34 27° 96° (E) 14:00:36 437.505
BEESAT 09 Dec 13:56:11 14:00:11 27° 96° (E) 14:04:11 436.000
Oscar 19 09 Dec 14:07:35 14:09:55 13° 270° (W) 14:12:16 437.125/150
AUBIESAT-1 09 Dec 14:07:57 14:11:33 23° 98° (E) 14:15:00 437.475
UKube-1 09 Dec 14:10:20 14:12:21 13° 298° (WNW) 14:14:22 .
AIST 2 09 Dec 14:11:04 14:12:26 11° 38° (NE) 14:13:47 435.215
RS-15 09 Dec 14:11:44 14:23:21 42° 39° (NE) 14:34:38 29.354- 29.394
M-CUBED/EXP-1 PRIME 09 Dec 14:23:00 14:27:24 41° 103° (ESE) 14:31:34 437.505
BEESAT 2 09 Dec 14:24:41 14:27:38 20° 248° (WSW) 14:30:34 435.950
ITUPSAT 1 09 Dec 14:25:59 14:30:39 53° 100° (E) 14:35:18 437.325
MOZHAYETS 4 09 Dec 14:29:15 14:31:41 14° 91° (E) 14:34:07
AO-7 09 Dec 14:30:52 14:39:10 83° 70° (ENE) 14:47:33 29.400- 29.500
Gurwin Techsat 1B 09 Dec 14:33:43 14:36:47 15° 269° (W) 14:39:53 435.225
ITAMSAT 1 09 Dec 14:41:01 14:46:06 52° 260° (W) 14:51:12 435.822/435.867
O/OREOS (USA 219) 09 Dec 14:41:25 14:45:42 41° 106° (ESE) 14:49:58 437.305
ISS 09 Dec 14:43:10 14:46:24 63° 140° (SE) 14:49:40 145.825
Cosmos 2491 09 Dec 15:22:05 15:24:27 11° 55° (NE) 15:26:49 435.465 / 435.565
SWISSCUBE 09 Dec 15:30:10 15:34:20 31° 292° (WNW) 15:38:29 437.505
BEESAT 09 Dec 15:33:45 15:37:57 32° 292° (WNW) 15:42:08 436.000
AUBIESAT-1 09 Dec 15:41:51 15:46:00 35° 296° (WNW) 15:49:57 437.475
BRITE-PL 09 Dec 15:44:54 15:48:52 34° 69° (ENE) 15:53:09 437.365/2234.400
AIST 2 09 Dec 15:47:23 15:51:38 76° 57° (ENE) 15:55:51 435.215
M-CUBED/EXP-1 PRIME 09 Dec 15:57:59 16:01:31 22° 300° (WNW) 16:04:57 437.505
STARS 09 Dec 16:01:48 16:05:28 25° 96° (E) 16:09:06 437.465
MOZHAYETS 4 09 Dec 16:04:43 16:09:11 54° 287° (WNW) 16:13:36
ITUPSAT 1 09 Dec 16:04:58 16:08:04 17° 297° (WNW) 16:11:08 437.325
KKS-1 09 Dec 16:06:16 16:10:44 62° 101° (E) 16:15:09 437.445
HORYU 2 09 Dec 16:17:59 16:22:24 64° 74° (ENE) 16:26:50 437.375
CUBESAT XI-V 09 Dec 16:18:09 16:22:15 30° 96° (E) 16:26:21 437.345
ISS 09 Dec 16:20:27 16:23:08 23° 339° (NNW) 16:25:50 145.825
O/OREOS (USA 219) 09 Dec 16:21:51 16:25:16 20° 303° (WNW) 16:28:42 437.305
RS-15 09 Dec 16:24:32 16:36:46 70° 244° (WSW) 16:48:33 29.354- 29.394
AO-7 09 Dec 16:27:06 16:32:48 20° 268° (W) 16:38:34 29.400- 29.500
DOVE 4 09 Dec 16:29:29 16:33:05 20° 64° (ENE) 16:36:47 437.250
GOMX 1 09 Dec 16:37:56 16:42:27 52° 72° (ENE) 16:47:21 467.674
HO-68 09 Dec 16:40:36 16:42:41 11° 49° (NE) 16:44:46 435.675
LilacSat-2 09 Dec 16:41:04 16:44:20 27° 70° (ENE) 16:47:35 437.200
CUTE-I 09 Dec 16:43:33 16:48:25 37° 68° (ENE) 16:53:18 437.470
NOAA 15 09 Dec 16:53:08 16:58:09 49° 71° (ENE) 17:03:12 137.62
Cubesat XI-IV 09 Dec 17:10:18 17:15:36 63° 72° (ENE) 17:20:55 437.490
Cosmos 2491 09 Dec 17:14:49 17:23:26 60° 78° (ENE) 17:31:59 435.465 / 435.565
CINEMA 3 09 Dec 17:19:28 17:22:37 17° 63° (ENE) 17:25:47 145.822/145.860
BRITE-PL 09 Dec 17:24:08 17:27:30 22° 268° (W) 17:31:05 437.365/2234.400
NOAA 18 09 Dec 17:25:46 17:31:11 58° 71° (ENE) 17:36:39 137.9125
AIST 2 09 Dec 17:29:03 17:29:29 10° 253° (WSW) 17:29:54 435.215
STARS 09 Dec 17:37:57 17:41:47 29° 292° (WNW) 17:45:35 437.465
YUBILEINY 09 Dec 17:40:48 17:48:30 37° 85° (E) 17:56:14 435.215
KKS-1 09 Dec 17:44:31 17:46:45 14° 298° (WNW) 17:48:58 437.445
CUTE 1.7 + AOD 2 09 Dec 17:54:34 17:57:28 18° 66° (ENE) 18:00:22 437.475
CUBESAT XI-V 09 Dec 17:55:34 17:59:32 28° 292° (WNW) 18:03:29 437.345
HORYU 2 09 Dec 17:57:41 17:59:21 12° 269° (W) 18:01:02 437.375
PCSat 09 Dec 17:57:56 18:01:06 15° 41° (NE) 18:04:14 145.827
ISS 09 Dec 17:58:52 18:00:33 13° 359° (N) 18:02:13 145.825
DOVE 4 09 Dec 18:05:36 18:10:18 50° 262° (W) 18:15:19 437.250
CANX-2 09 Dec 18:12:26 18:16:11 32° 71° (ENE) 18:19:57 2200.000
Cosmos 2504 09 Dec 18:12:30 18:19:26 29° 82° (E) 18:26:36 435.465 / 435.565
LilacSat-2 09 Dec 18:15:41 18:18:36 20° 266° (W) 18:21:31 437.200
STRAND 1 09 Dec 18:17:47 18:21:18 19° 92° (E) 18:24:48 437.568
GOMX 1 09 Dec 18:17:59 18:20:57 16° 271° (W) 18:24:03 467.674
HO-68 09 Dec 18:21:56 18:28:55 58° 68° (ENE) 18:35:56 435.675
CUTE-I 09 Dec 18:23:53 18:28:29 29° 264° (W) 18:33:06 437.470
SO-50 09 Dec 18:27:23 18:31:47 38° 116° (ESE) 18:36:10 436.795
SEEDS 09 Dec 18:29:28 18:33:04 29° 70° (ENE) 18:36:41 437.485
COMPASS 1 09 Dec 18:32:37 18:35:44 21° 68° (ENE) 18:38:53 437.405
NOAA 15 09 Dec 18:34:21 18:38:11 20° 267° (W) 18:42:02 137.62
RS-15 09 Dec 18:40:46 18:46:47 15° 265° (W) 18:52:43 29.354- 29.394
CUBEBUG 2 09 Dec 18:45:42 18:49:50 30° 69° (ENE) 18:53:55 437.445
Oscar 11 09 Dec 18:49:28 18:50:20 11° 62° (ENE) 18:51:13 145.826/435.025
Cubesat XI-IV 09 Dec 18:52:46 18:56:05 16° 269° (W) 18:59:25 437.490
CINEMA 3 09 Dec 18:54:18 18:59:12 61° 260° (W) 19:04:12 145.822/145.860
AIST 1 09 Dec 18:57:22 19:01:35 56° 94° (E) 19:05:52
NOAA 18 09 Dec 19:08:22 19:12:12 19° 268° (W) 19:16:04 137.9125
Cosmos 2491 09 Dec 19:12:34 19:19:39 29° 277° (W) 19:26:43 435.465 / 435.565
UWE-3 09 Dec 19:19:12 19:23:35 42° 72° (ENE) 19:27:54 435.000/436.395/437.385
CUSAT 1 09 Dec 19:27:14 19:31:12 56° 80° (E) 19:36:25 437.405
CUTE 1.7 + AOD 2 09 Dec 19:29:06 19:33:01 37° 262° (W) 19:36:57 437.475
AAUSAT CUBESAT 2 09 Dec 19:32:23 19:36:28 79° 77° (ENE) 19:40:36 437.432
ISS 09 Dec 19:35:25 19:38:00 21° 19° (NNE) 19:40:35 145.825
YUBILEINY 09 Dec 19:36:43 19:45:01 48° 285° (WNW) 19:53:27 435.215
PCSat 09 Dec 19:39:53 19:45:21 83° 62° (ENE) 19:50:46 145.827
CANX-2 09 Dec 19:48:57 19:52:05 20° 266° (W) 19:55:14 2200.000
ZACube-1 09 Dec 19:50:52 19:55:19 56° 74° (ENE) 19:59:41 437.345
STRAND 1 09 Dec 19:55:49 20:00:46 51° 289° (WNW) 20:05:40 437.568
FUNcube-1 09 Dec 19:56:08 20:00:35 59° 74° (ENE) 20:04:57 145.935
DELFI C3 09 Dec 19:56:22 19:59:05 18° 67° (ENE) 20:01:50 145.870
Cosmos 2504 09 Dec 20:03:47 20:12:08 62° 282° (WNW) 20:20:56 435.465 / 435.565
SEEDS 09 Dec 20:05:30 20:08:46 22° 266° (W) 20:12:02 437.485
COMPASS 1 09 Dec 20:07:28 20:11:06 30° 264° (W) 20:14:47 437.405
SO-50 09 Dec 20:08:14 20:12:20 28° 313° (NW) 20:16:24 436.795
HO-68 09 Dec 20:11:10 20:16:59 27° 266° (W) 20:22:53 435.675
Oscar 11 09 Dec 20:21:32 20:25:51 76° 259° (W) 20:30:10 145.826/435.025
CUBEBUG 2 09 Dec 20:22:18 20:26:22 28° 265° (W) 20:30:26 437.445
PRISM 09 Dec 20:32:13 20:35:46 26° 96° (E) 20:39:18 437.425
AIST 1 09 Dec 20:37:42 20:39:34 12° 292° (WNW) 20:41:28
HUMSAT D 09 Dec 20:42:42 20:46:28 34° 71° (ENE) 20:50:14 437.325/437.525
DANDE 09 Dec 20:54:26 20:57:28 58° 261° (W) 21:01:18 436.750
UWE-3 09 Dec 20:56:54 21:00:11 19° 267° (W) 21:03:27 435.000/436.395/437.385
CUSAT 1 09 Dec 21:11:01 21:12:59 13° 268° (W) 21:15:09 437.405
ISS 09 Dec 21:11:31 21:14:49 81° 219° (SW) 21:18:08 145.825
TIGRISAT 09 Dec 21:14:08 21:16:54 16° 92° (E) 21:19:37 435.000
ANTELSAT 09 Dec 21:16:29 21:19:32 19° 93° (E) 21:22:33 437.575/2403.000
PCSat 09 Dec 21:25:37 21:27:59 13° 257° (WSW) 21:30:20 145.827
ESTCUBE 1 09 Dec 21:29:04 21:32:01 18° 65° (ENE) 21:34:59 437.505/2401.250
ZACube-1 09 Dec 21:29:38 21:31:53 14° 269° (W) 21:34:09 437.345
DELFI C3 09 Dec 21:30:08 21:33:40 32° 263° (W) 21:37:13 145.870
CUBEBUG 1 09 Dec 21:34:06 21:35:39 12° 62° (ENE) 21:37:14 437.445
FUNcube-1 09 Dec 21:35:07 21:37:08 13° 269° (W) 21:39:10 145.935
VELOX 1 09 Dec 21:55:10 21:57:23 14° 62° (ENE) 21:59:37 145.980
Cosmos 2504 09 Dec 22:04:14 22:07:37 12° 305° (NW) 22:11:03 435.465 / 435.565
PRISM 09 Dec 22:07:32 22:10:57 25° 292° (WNW) 22:14:23 437.425
HUMSAT D 09 Dec 22:19:06 22:22:09 19° 266° (W) 22:25:11 437.325/437.525
UNISAT 6 09 Dec 22:20:49 22:25:13 82° 284° (WNW) 22:29:29 437.425
GONETS M04 09 Dec 22:23:21 22:27:31 15° 75° (ENE) 22:31:42
QB50P1 09 Dec 22:27:35 22:28:58 11° 90° (E) 22:30:20 145.935-145.965
JAS-2 09 Dec 22:28:00 22:32:10 23° 95° (E) 22:36:31 435.910
PHONESAT 2.4 09 Dec 22:46:43 22:49:11 34° 161° (SSE) 22:51:39 2401.200-2431.200
POPSAT HIP 1 09 Dec 22:48:04 22:51:10 20° 94° (E) 22:54:14 437.405
TIGRISAT 09 Dec 22:49:41 22:53:48 42° 288° (WNW) 22:57:50 435.000
Cosmos 2499 09 Dec 22:52:10 22:59:09 28° 82° (E) 23:06:16 435.465 / 435.565
AISAT 09 Dec 22:52:21 22:56:41 57° 73° (ENE) 23:01:04 437.250
ANTELSAT 09 Dec 22:52:22 22:56:23 37° 290° (WNW) 23:00:20 437.575/2403.000
50 SAT 09 Dec 22:55:02 22:58:20 41° 73° (ENE) 23:01:40 437.505
ESTCUBE 1 09 Dec 23:04:10 23:08:28 46° 261° (W) 23:12:47 437.505/2401.250
CUBEBUG 1 09 Dec 23:06:59 23:11:19 71° 258° (WSW) 23:15:44 437.445
UKube-1 09 Dec 23:26:37 23:30:46 50° 72° (ENE) 23:34:58 .
DX 1 09 Dec 23:27:51 23:32:11 71° 75° (ENE) 23:36:33 434.975-435.025
VELOX 1 09 Dec 23:28:58 23:33:19 60° 259° (WSW) 23:37:44 145.980
SPROUT 09 Dec 23:30:02 23:34:20 89° 248° (WSW) 23:38:41 437.525
NANOSAT C BR1 09 Dec 23:38:43 23:42:56 71° 101° (E) 23:47:07 145.865
QB50P2 09 Dec 23:48:51 23:53:06 76° 284° (WNW) 23:57:18 145.880/145.840
POLYITAN 1 09 Dec 23:49:16 23:53:30 80° 284° (WNW) 23:57:42 437.675
DUCHIFAT 1 09 Dec 23:58:40 00:02:53 74° 285° (WNW) 00:07:03 145.980
QB50P1 10 Dec 00:00:55 00:05:06 59° 286° (WNW) 00:09:14 145.935-145.965
AO-85 10 Dec 00:10:45 00:15:10 33° 115° (ESE) 00:19:19 145.980
JAS-2 10 Dec 00:12:32 00:17:26 42° 290° (WNW) 00:22:36 435.910
GONETS M04 10 Dec 00:14:07 00:22:49 80° 95° (E) 00:31:32
PHONESAT 2.4 10 Dec 00:21:34 00:24:13 80° 180° (S) 00:26:52 2401.200-2431.200
POPSAT HIP 1 10 Dec 00:23:11 00:27:02 34° 290° (WNW) 00:30:50 437.405
50 SAT 10 Dec 00:30:59 00:31:50 11° 269° (W) 00:32:43 437.505
AISAT 10 Dec 00:31:24 00:33:30 13° 269° (W) 00:35:36 437.250
TISAT 1 10 Dec 00:36:27 00:40:41 81° 76° (ENE) 00:44:57 437.305
Oscar 19 10 Dec 00:37:09 00:41:27 26° 95° (E) 00:45:43 437.125/150
BUGSAT 1 10 Dec 00:37:54 00:42:04 71° 285° (WNW) 00:46:08 437.445
Cosmos 2499 10 Dec 00:42:59 00:51:33 65° 281° (WNW) 01:00:25 435.465 / 435.565
O/OREOS (USA 219) 10 Dec 00:51:15 00:55:46 79° 68° (ENE) 01:00:13 437.305
AUBIESAT-1 10 Dec 00:52:51 00:56:30 28° 62° (ENE) 01:00:20 437.475
SWISSCUBE 10 Dec 00:58:46 01:02:58 32° 68° (ENE) 01:07:10 437.505
BEESAT 10 Dec 01:02:21 01:06:32 31° 68° (ENE) 01:10:43 436.000
UKube-1 10 Dec 01:04:46 01:07:04 14° 268° (W) 01:09:25 .
Gurwin Techsat 1B 10 Dec 01:08:01 01:12:25 26° 95° (E) 01:16:47 435.225
M-CUBED/EXP-1 PRIME 10 Dec 01:08:21 01:12:25 49° 67° (ENE) 01:16:47 437.505
DX 1 10 Dec 01:08:32 01:08:50 10° 270° (W) 01:09:08 434.975-435.025
NANOSAT C BR1 10 Dec 01:17:02 01:18:03 11° 298° (WNW) 01:19:04 145.865
MOZHAYETS 4 10 Dec 01:31:25 01:33:55 15° 63° (ENE) 01:36:25
ITUPSAT 1 10 Dec 01:32:22 01:37:04 61° 73° (ENE) 01:41:47 437.325
AO-85 10 Dec 01:51:15 01:55:35 31° 310° (NW) 01:59:39 145.980
PHONESAT 2.4 10 Dec 01:56:44 01:59:19 50° 194° (SSW) 02:01:53 2401.200-2431.200
GONETS M04 10 Dec 02:14:15 02:20:39 22° 296° (WNW) 02:27:04
Oscar 19 10 Dec 02:16:02 02:20:51 39° 291° (WNW) 02:25:38 437.125/150
AUBIESAT-1 10 Dec 02:27:08 02:30:48 29° 260° (W) 02:34:41 437.475
AO-7 10 Dec 02:33:25 02:40:17 27° 95° (E) 02:47:08 29.400- 29.500
SWISSCUBE 10 Dec 02:36:43 02:40:44 27° 264° (W) 02:44:46 437.505
BEESAT 10 Dec 02:40:13 02:44:16 27° 264° (W) 02:48:21 436.000
Cosmos 2499 10 Dec 02:42:40 02:46:37 13° 303° (WNW) 02:50:37 435.465 / 435.565
M-CUBED/EXP-1 PRIME 10 Dec 02:44:34 02:47:11 16° 265° (W) 02:49:54 437.505
Gurwin Techsat 1B 10 Dec 02:47:32 02:52:27 40° 291° (WNW) 02:57:22 435.225
ITAMSAT 1 10 Dec 02:53:48 02:58:54 55° 101° (E) 03:03:57 435.822/435.867
STARS 10 Dec 02:58:23 03:01:52 23° 67° (ENE) 03:05:22 437.465
SO-50 10 Dec 02:58:48 03:02:57 33° 49° (NE) 03:07:00 436.795
KKS-1 10 Dec 03:03:51 03:08:13 56° 73° (ENE) 03:12:37 437.445
MOZHAYETS 4 10 Dec 03:06:04 03:10:35 59° 259° (W) 03:15:07
ITUPSAT 1 10 Dec 03:12:49 03:15:17 14° 269° (W) 03:17:45 437.325
CUBESAT XI-V 10 Dec 03:21:25 03:25:19 29° 69° (ENE) 03:29:16 437.345
PHONESAT 2.4 10 Dec 03:32:45 03:34:07 13° 209° (SSW) 03:35:28 2401.200-2431.200
BEESAT 3 10 Dec 03:36:01 03:39:50 59° 119° (ESE) 03:43:43 437.485
BRITE-PL 10 Dec 03:49:59 03:53:09 15° 89° (E) 03:56:21 437.365/2234.400
YUBILEINY 10 Dec 03:51:24 03:57:03 18° 61° (ENE) 04:02:40 435.215
HORYU 2 10 Dec 04:11:09 04:12:45 12° 90° (E) 04:14:21 437.375
BEESAT 2 10 Dec 04:14:48 04:18:43 71° 119° (ESE) 04:22:41 435.950
AO-7 10 Dec 04:25:17 04:33:34 66° 293° (WNW) 04:41:49 29.400- 29.500
Cosmos 2491 10 Dec 04:26:03 04:28:53 12° 73° (ENE) 04:31:43 435.465 / 435.565
STARS 10 Dec 04:34:01 04:38:01 33° 263° (W) 04:42:04 437.465
ITAMSAT 1 10 Dec 04:34:21 04:37:55 19° 298° (WNW) 04:41:29 435.822/435.867
SO-50 10 Dec 04:39:28 04:43:17 27° 247° (WSW) 04:47:02 436.795
RS-15 10 Dec 04:39:34 04:47:01 20° 97° (E) 04:54:38 29.354- 29.394
GOMX 1 10 Dec 04:40:23 04:44:16 19° 91° (E) 04:48:06 467.674
KKS-1 10 Dec 04:42:51 04:45:06 14° 269° (W) 04:47:23 437.445
CUBESAT XI-V 10 Dec 04:58:44 05:02:38 28° 265° (W) 05:06:35 437.345
CUTE-I 10 Dec 05:02:06 05:04:48 14° 90° (E) 05:07:30 437.470
AIST 1 10 Dec 05:05:40 05:08:11 15° 70° (ENE) 05:10:40
NOAA 15 10 Dec 05:09:15 05:12:51 18° 92° (E) 05:16:27 137.62
BEESAT 3 10 Dec 05:15:27 05:17:50 15° 317° (NW) 05:20:13 437.485
BRITE-PL 10 Dec 05:26:30 05:32:03 75° 285° (WNW) 05:37:44 437.365/2234.400
Cubesat XI-IV 10 Dec 05:28:16 05:32:37 25° 94° (E) 05:36:55 437.490
STRAND 1 10 Dec 05:33:18 05:37:35 27° 66° (ENE) 05:41:52 437.568
HORYU 2 10 Dec 05:45:19 05:49:43 62° 286° (WNW) 05:54:03 437.375
AIST 2 10 Dec 05:46:13 05:48:40 16° 110° (ESE) 05:51:10 435.215
YUBILEINY 10 Dec 05:46:21 05:55:14 85° 83° (E) 06:04:06 435.215
LilacSat-2 10 Dec 05:48:03 05:51:37 39° 98° (E) 05:55:09 437.200
NOAA 18 10 Dec 05:48:35 05:53:02 24° 95° (E) 05:57:25 137.9125
BEESAT 2 10 Dec 05:54:52 05:56:57 14° 319° (NW) 05:59:05 435.950
Cosmos 2504 10 Dec 05:56:58 06:05:30 53° 76° (ENE) 06:13:26 435.465 / 435.565
DOVE 4 10 Dec 06:04:31 06:09:38 50° 98° (E) 06:14:31 437.250
Cosmos 2491 10 Dec 06:15:17 06:23:59 70° 93° (E) 06:32:39 435.465 / 435.565
GOMX 1 10 Dec 06:17:15 06:22:40 57° 287° (WNW) 06:27:58 467.674
AO-7 10 Dec 06:20:20 06:24:46 16° 314° (NW) 06:29:14 29.400- 29.500
CUTE-I 10 Dec 06:40:03 06:45:22 72° 286° (WNW) 06:50:39 437.470
AIST 1 10 Dec 06:41:49 06:46:04 48° 267° (W) 06:50:17
RS-15 10 Dec 06:45:41 06:57:24 81° 118° (ESE) 07:09:43 29.354- 29.394
NOAA 15 10 Dec 06:47:48 06:52:57 55° 288° (WNW) 06:58:06 137.62
CINEMA 3 10 Dec 06:49:46 06:54:03 33° 96° (E) 06:58:07 145.822/145.860
Cubesat XI-IV 10 Dec 07:07:49 07:12:48 41° 291° (WNW) 07:17:45 437.490
BRITE-PL 10 Dec 07:08:01 07:09:37 11° 301° (WNW) 07:11:15 437.365/2234.400
STRAND 1 10 Dec 07:11:54 07:16:36 36° 262° (W) 07:21:19 437.568
CUTE 1.7 + AOD 2 10 Dec 07:13:47 07:17:40 34° 97° (E) 07:21:32 437.475
AAUSAT CUBESAT 2 10 Dec 07:16:26 07:18:11 12° 91° (E) 07:19:55 437.432
PRISM 10 Dec 07:21:55 07:24:51 19° 66° (ENE) 07:27:47 437.425
AIST 2 10 Dec 07:22:45 07:26:44 48° 307° (NW) 07:30:48 435.215
LilacSat-2 10 Dec 07:23:32 07:25:34 14° 294° (WNW) 07:27:36 437.200
NOAA 18 10 Dec 07:28:36 07:33:52 45° 291° (WNW) 07:39:03 137.9125
CANX-2 10 Dec 07:32:34 07:36:47 68° 101° (E) 07:41:00 2200.000
HO-68 10 Dec 07:37:04 07:44:13 62° 102° (ESE) 07:51:19 435.675
DOVE 4 10 Dec 07:42:59 07:46:53 21° 296° (WNW) 07:50:40 437.250
YUBILEINY 10 Dec 07:45:09 07:50:49 19° 282° (WNW) 07:56:32 435.215
FUNcube-1 10 Dec 07:47:25 07:47:53 10° 89° (E) 07:48:21 145.935
SEEDS 10 Dec 07:48:09 07:52:18 58° 100° (E) 07:56:26 437.485
COMPASS 1 10 Dec 07:49:41 07:53:37 39° 98° (E) 07:57:32 437.405
Cosmos 2504 10 Dec 07:50:59 07:58:26 33° 276° (W) 08:05:30 435.465 / 435.565
Oscar 11 10 Dec 08:09:35 08:12:44 20° 93° (E) 08:15:52 145.826/435.025
TIGRISAT 10 Dec 08:12:41 08:15:39 17° 64° (ENE) 08:18:36 435.000
CUBEBUG 2 10 Dec 08:12:43 08:17:02 63° 101° (E) 08:21:11 437.445
Cosmos 2491 10 Dec 08:14:35 08:21:34 26° 294° (WNW) 08:28:34 435.465 / 435.565
ANTELSAT 10 Dec 08:15:07 08:18:20 19° 65° (ENE) 08:21:33 437.575/2403.000
CINEMA 3 10 Dec 08:27:11 08:30:59 24° 294° (WNW) 08:34:38 145.822/145.860
CUSAT 1 10 Dec 08:31:45 08:34:34 46° 98° (E) 08:37:07 437.405
AO-85 10 Dec 08:42:35 08:45:52 24° 47° (NE) 08:49:03 145.980
JAS-2 10 Dec 08:44:03 08:45:38 11° 58° (ENE) 08:47:13 435.910
UWE-3 10 Dec 08:45:10 08:49:27 87° 278° (W) 08:53:37 435.000/436.395/437.385
